Weather History for Camdenton, MO

Change the Weather History Date:

Tuesday, April 16, 2013

  Actual Average (KAIZ) Record (KAIZ)
Temperature  
Mean Temperature 44 °F -  
Max Temperature 48 °F 65 °F 84 °F (2004)
Min Temperature 41 °F 45 °F 35 °F (2001)
Degree Days  
Heating Degree Days 20    
Moisture  
Dew Point 43 °F    
Average Humidity 100    
Maximum Humidity 100    
Minimum Humidity 100    
Precipitation  
Precipitation 0.56 in - - ()
Sea Level Pressure  
Sea Level Pressure 30.05 in    
Wind  
Wind Speed 9 mph (NNE)    
Max Wind Speed 15 mph    
Max Gust Speed 28 mph    
Visibility 6 miles    
Events Fog , Rain , Thunderstorm    
Averages and records for this station are not official NWS values.
T = Trace of Precipitation, MM = Missing Value Source: NWS Daily Summary

Daily Weather History Graph

Daily Weather History Graph

Search for Another Location

Airport:

Trip Planner

Search our weather history database for the weather conditions in past years. The results will help you decide how hot, cold, wet, or windy it might be!

Date:

Astronomy

Apr. 16, 2013 Rise Set
Actual Time 6:33 AM CDT 7:47 PM CDT
Civil Twilight 6:06 AM CDT 8:15 PM CDT
Nautical Twilight 5:33 AM CDT 8:47 PM CDT
Astronomical Twilight 4:59 AM CDT 9:21 PM CDT
Moon 10:55 AM CDT (4/16) 12:42 AM CDT (4/16)
Length of Visible Light 14h 08m
Length of Day
13h 14m
Waxing Crescent, 33% of the Moon is Illuminated
Apr 16
Waxing Crescent
Apr 18
First Quarter
Apr 25
Full
May 2
Last Quarter
May 9
New

Hourly Weather History & Observations

Time (CDT) Temp. Windchill Dew Point Humidity Pressure Visibility Wind Dir Wind Speed Gust Speed Precip Events Conditions
12:15 AM 48.2 °F - 48.2 °F 100% 29.97 in 10.0 mi NW 12.7 mph 18.4 mph N/A Thunderstorm Overcast
12:35 AM 48.2 °F - 48.2 °F 100% 29.94 in 10.0 mi North 9.2 mph 19.6 mph N/A   Overcast
12:55 AM 48.2 °F - 48.2 °F 100% 29.95 in 10.0 mi North 6.9 mph 20.7 mph N/A Thunderstorm Overcast
1:15 AM 46.4 °F 40.7 °F 46.4 °F 100% 29.99 in 10.0 mi North 12.7 mph 26.5 mph N/A Thunderstorm Thunderstorm
1:35 AM 46.4 °F 42.4 °F 46.4 °F 100% 29.95 in 7.0 mi NE 8.1 mph 19.6 mph 0.01 in Rain , Thunderstorm Light Thunderstorms and Rain
1:55 AM 46.4 °F 40.1 °F 46.4 °F 100% 30.03 in 10.0 mi WNW 15.0 mph 27.6 mph 0.01 in Thunderstorm Overcast
2:35 AM 44.6 °F 38.8 °F 44.6 °F 100% 29.95 in 10.0 mi ENE 11.5 mph - 0.13 in Rain , Thunderstorm Light Thunderstorms and Rain
2:55 AM 44.6 °F 39.2 °F 44.6 °F 100% 29.98 in 0.5 mi North 10.4 mph - 0.45 in Thunderstorm Thunderstorm
3:15 AM 44.6 °F 39.7 °F 44.6 °F 100% 29.97 in 10.0 mi North 9.2 mph - 0.01 in Rain , Thunderstorm Light Thunderstorms and Rain
3:35 AM 44.6 °F 40.2 °F 44.6 °F 100% 29.99 in 10.0 mi North 8.1 mph - 0.01 in Thunderstorm Thunderstorm
3:55 AM 42.8 °F 37.0 °F 42.8 °F 100% 30.00 in 10.0 mi North 10.4 mph - 0.01 in   Overcast
4:15 AM 42.8 °F 38.0 °F 42.8 °F 100% 29.99 in 10.0 mi NE 8.1 mph 16.1 mph N/A   Overcast
4:35 AM 42.8 °F 38.0 °F 42.8 °F 100% 29.99 in 10.0 mi North 8.1 mph - N/A   Overcast
4:55 AM 42.8 °F 39.3 °F 42.8 °F 100% 30.00 in 10.0 mi NNE 5.8 mph - N/A   Overcast
5:15 AM 42.8 °F 38.0 °F 42.8 °F 100% 30.00 in 10.0 mi NNE 8.1 mph - N/A Rain Light Rain
5:35 AM 42.8 °F 37.0 °F 42.8 °F 100% 30.01 in 10.0 mi NNE 10.4 mph 18.4 mph N/A   Overcast
5:55 AM 42.8 °F 37.5 °F 42.8 °F 100% 30.01 in 10.0 mi NNE 9.2 mph - N/A   Overcast
6:15 AM 42.8 °F 38.0 °F 42.8 °F 100% 30.02 in 10.0 mi NNE 8.1 mph - N/A   Overcast
6:35 AM 42.8 °F 38.0 °F 42.8 °F 100% 30.02 in 10.0 mi NE 8.1 mph 16.1 mph N/A   Overcast
7:15 AM 42.8 °F 38.6 °F 42.8 °F 100% 30.04 in 4.0 mi NNE 6.9 mph - N/A   Overcast
7:35 AM 42.8 °F 37.0 °F 42.8 °F 100% 30.05 in 4.0 mi North 10.4 mph 16.1 mph N/A   Overcast
8:15 AM 41.0 °F 34.7 °F 41.0 °F 100% 30.07 in 4.0 mi North 10.4 mph - N/A Rain , Thunderstorm Light Thunderstorms and Rain
8:35 AM 41.0 °F 34.7 °F 41.0 °F 100% 30.10 in 3.0 mi North 10.4 mph - 0.01 in Rain Light Rain
8:55 AM 41.0 °F 35.8 °F 41.0 °F 100% 30.07 in 4.0 mi NNE 8.1 mph - 0.04 in Rain Light Rain
9:15 AM 41.0 °F 35.8 °F 41.0 °F 100% 30.08 in 5.0 mi NNE 8.1 mph - 0.03 in Rain , Thunderstorm Light Thunderstorms and Rain
9:35 AM 41.0 °F 35.8 °F 41.0 °F 100% 30.08 in 5.0 mi NNE 8.1 mph - 0.04 in Rain Rain
9:55 AM 41.0 °F 35.8 °F 41.0 °F 100% 30.08 in 5.0 mi NNE 8.1 mph - 0.05 in Rain Rain
10:15 AM 41.0 °F 35.8 °F 41.0 °F 100% 30.09 in 7.0 mi NE 8.1 mph - N/A Rain Light Rain
10:35 AM 41.0 °F 35.2 °F 41.0 °F 100% 30.10 in 5.0 mi NNE 9.2 mph 16.1 mph N/A   Overcast
10:55 AM 41.0 °F 35.2 °F 41.0 °F 100% 30.10 in 5.0 mi NNE 9.2 mph - N/A   Overcast
11:15 AM 41.0 °F 36.4 °F 41.0 °F 100% 30.10 in 3.0 mi NNE 6.9 mph - N/A   Overcast
11:35 AM 42.8 °F 38.0 °F 42.8 °F 100% 30.10 in 4.0 mi NE 8.1 mph 18.4 mph N/A   Overcast
11:55 AM 42.8 °F 38.6 °F 42.8 °F 100% 30.10 in 5.0 mi NE 6.9 mph - N/A   Overcast
12:15 PM 42.8 °F 38.6 °F 42.8 °F 100% 30.10 in 5.0 mi NNE 6.9 mph - N/A   Overcast
12:35 PM 42.8 °F 37.5 °F 42.8 °F 100% 30.09 in 7.0 mi NNE 9.2 mph - N/A   Overcast
12:55 PM 42.8 °F 38.0 °F 42.8 °F 100% 30.10 in 7.0 mi NE 8.1 mph - N/A   Overcast
1:15 PM 42.8 °F 38.0 °F 42.8 °F 100% 30.09 in 7.0 mi NE 8.1 mph - N/A   Overcast
1:35 PM 42.8 °F 38.0 °F 42.8 °F 100% 30.09 in 7.0 mi NNE 8.1 mph - N/A   Overcast
1:55 PM 42.8 °F 38.6 °F 42.8 °F 100% 30.09 in 4.0 mi NNE 6.9 mph - N/A   Overcast
2:15 PM 42.8 °F 38.0 °F 42.8 °F 100% 30.09 in 5.0 mi NNE 8.1 mph - N/A   Overcast
2:35 PM 42.8 °F 37.5 °F 42.8 °F 100% 30.08 in 3.0 mi NE 9.2 mph - N/A   Overcast
2:55 PM 42.8 °F 38.0 °F 42.8 °F 100% 30.07 in 4.0 mi NE 8.1 mph - N/A   Overcast
3:15 PM 44.6 °F 40.2 °F 44.6 °F 100% 30.08 in 7.0 mi NE 8.1 mph - N/A   Overcast
3:35 PM 44.6 °F 41.4 °F 44.6 °F 100% 30.07 in 7.0 mi NNE 5.8 mph - N/A   Overcast
3:55 PM 42.8 °F 38.6 °F 42.8 °F 100% 30.07 in 5.0 mi NNE 6.9 mph - N/A   Overcast
4:15 PM 44.6 °F 40.7 °F 44.6 °F 100% 30.07 in 7.0 mi NE 6.9 mph - N/A   Overcast
4:35 PM 44.6 °F 40.2 °F 44.6 °F 100% 30.07 in 7.0 mi NE 8.1 mph - N/A   Overcast
4:55 PM 44.6 °F 40.2 °F 44.6 °F 100% 30.07 in 7.0 mi NNE 8.1 mph - N/A   Overcast
5:15 PM 44.6 °F 40.2 °F 44.6 °F 100% 30.07 in 10.0 mi NE 8.1 mph - N/A   Overcast
5:35 PM 44.6 °F 41.4 °F 44.6 °F 100% 30.07 in 10.0 mi NNE 5.8 mph - N/A   Overcast
5:55 PM 42.8 °F 38.6 °F 42.8 °F 100% 30.07 in 4.0 mi NNE 6.9 mph - N/A   Overcast
6:15 PM 42.8 °F 38.6 °F 42.8 °F 100% 30.07 in 2.5 mi NNE 6.9 mph - N/A   Overcast
6:35 PM 42.8 °F 39.3 °F 42.8 °F 100% 30.07 in 2.0 mi NNE 5.8 mph - N/A   Overcast
6:55 PM 42.8 °F 38.6 °F 42.8 °F 100% 30.07 in 4.0 mi NE 6.9 mph - N/A   Overcast
7:15 PM 42.8 °F 38.0 °F 42.8 °F 100% 30.07 in 2.5 mi NNE 8.1 mph - N/A   Overcast
7:35 PM 42.8 °F 38.0 °F 42.8 °F 100% 30.07 in 2.5 mi NE 8.1 mph - N/A   Overcast
7:55 PM 42.8 °F 38.0 °F 42.8 °F 100% 30.08 in 4.0 mi NE 8.1 mph - N/A   Overcast
8:15 PM 42.8 °F 38.6 °F 42.8 °F 100% 30.08 in 4.0 mi NE 6.9 mph - N/A   Overcast
8:35 PM 42.8 °F 37.5 °F 42.8 °F 100% 30.08 in 2.5 mi NE 9.2 mph - N/A   Overcast
8:55 PM 42.8 °F 37.5 °F 42.8 °F 100% 30.09 in 1.2 mi NE 9.2 mph - N/A   Overcast
9:15 PM 44.6 °F 41.4 °F 44.6 °F 100% 30.10 in 0.5 mi NE 5.8 mph - N/A Fog Fog
9:35 PM 44.6 °F 41.4 °F 44.6 °F 100% 30.09 in 0.5 mi NE 5.8 mph - N/A Fog Fog
9:55 PM 44.6 °F 39.7 °F 44.6 °F 100% 30.10 in 0.2 mi ENE 9.2 mph - N/A Fog Fog
10:55 PM 44.6 °F 40.7 °F 44.6 °F 100% 30.08 in 0.5 mi ENE 6.9 mph - N/A Fog Fog
11:15 PM 44.6 °F 40.7 °F 44.6 °F 100% 30.08 in 1.5 mi ENE 6.9 mph - N/A   Overcast
11:35 PM 44.6 °F 40.7 °F 44.6 °F 100% 30.07 in 1.5 mi ENE 6.9 mph - N/A   Overcast
11:55 PM 44.6 °F 41.4 °F 44.6 °F 100% 30.07 in 1.0 mi ENE 5.8 mph - N/A   Overcast